Location: Bonchamp
(47.0296°N, 0.8351°E)
Time: 04:48:45
(UTC+00:00)

Meteor 1-31 Rocket - Pass Details

Date: 06 September 2025
Orbit: 463 x 478 km, 97.6° (Epoch: 14 December)

Event Time Altitude Azimuth Distance (km) Brightness Sun altitude
Rises 17:52:53 0° 124° (SE) 2,525 5.7 4.8°
Reaches altitude 10° 17:55:32 10° 102° (ESE) 1,657 4.6 4.4°
Drops below altitude 10° 17:59:57 10° 25° (NNE) 1,674 5.1 3.6°
Enters shadow 19:00:29 -57° 168° (SSE) 11,243 9.4 -6.5°
Maximum altitude 19:30:39 42° 261° (W) 705 3.9 -11.4°
